SCP
0 0 0 0 0 0 0 0 0 0 0 0 0 0 0 0 0 0 0 0 0 0 0 0 0 0 0 0 0 0 0 0
0 0 0 0 0 0 0 0 0 0 0 0 0 0 0 0 0 0 0 0 0 0 0 0 0 0 0 0 0 0 0 0
-0 0 0 0 0 0 0 0 0 0 0 0 0 0 0 0 0 0 0 0 0 0 0 0 0 0 0 0 0 0 0 0
-0 0 0 0 0 0 0 0 0 0 0 0 0 0 0 0 0 0 0 0 0 0 0 0 0 0 0 0 0 0 0 0
-0 0 0 0 0 0 0 0 0 0 0 0 0 0 0 0 0 0 0 0 0 0 0 0 0 0 0 0 0 0 0 0
-0 0 0 0 0 0 0 0 0 0 0 0 0 0 0 0 0 0 0 0 0 0 0 0 0 0 0 0 0 0 0 0
-0 0 0 0 0 0 0 0 0 0 0 0 0 0 0 0 0 0 0 0 0 0 0 0 0 0 0 0 0 0 0 0
-0 0 0 0 0 0 0 0 0 0 0 0 0 0 0 0 0 0 0 0 0 0 0 0 0 0 0 0 0 0 0 0
0 0 -0 0 0 0 0 0 0 0 0 0 0 0 0 0 0 0 0 0 0 0 0 0 0 0 0 0 0 0 0 0
-0 -0 0 0 0 0 0 0 0 0 0 0 0 0 0 0 0 0 0 0 0 0 0 0 0 0 0 0 0 0 0 0
-0 0 0 -0 0 0 0 0 0 0 0 0 0 0 0 0 0 0 0 0 0 0 0 0 0 0 0 0 0 0 0 0
0 0 0 0 0 0 0 0 0 0 0 0 0 0 0 0 0 0 0 0 0 0 0 0 0 0 0 0 0 0 0 0
-0 -0 0 -0 -0 -0 -0 0 0 0 0 0 0 0 0 0 0 0 0 0 0 0 0 0 0 0 0 0 0 0 0 0
-0 0 -0 -0 -0 -0 -0 -0 -0 -0 0 0 0 0 0 0 0 0 0 0 0 0 0 0 0 0 0 0 0 0 0 0
-0 0 0 0 -0 -0 -0 -0 -0 -0 0 0 0 0 0 0 0 0 0 0 0 0 0 0 0 0 0 0 0 0 0 0
-0 -0 0 -0 -0 -0 -0 -0 -0 -0 -0 0 0 0 0 0 0 0 0 0 0 0 0 0 0 0 0 0 0 0 0 0
-0 -0 -0 -0 -0 -0 -0 -0 -0 -0 -0 -0 0 0 0 0 0 0 0 0 0 0 0 0 0 0 0 0 0 0 0 0
-0 -0 -0 -0 -0 -0 -0 -0 -0 -0 -0 0 0 0 0 0 0 0 0 0 0 0 0 0 0 0 0 0 0 0 0 0
0 -0 0 -0 0 -0 0 0 0 0 0 0 0 0 0 0 0 0 0 0 0 0 0 0 0 0 0 0 0 0 0 0
0 0 0 -0 -0 0 0 0 0 0 0 0 0 0 0 0 0 0 0 0 0 0 0 0 0 0 0 0 0 0 0 0
Wind_Speed_500mb
30 17 13 17 20 22 26 34 48 61 63 70 67 56 48 50 56 55 58 63 66 76 63 66 75 103 89 85 80 76 73 71
36 26 18 25 26 32 30 33 37 47 56 62 58 56 56 50 54 56 58 60 58 54 56 64 87 104 72 91 85 83 77 74
40 35 35 32 35 32 28 22 27 28 39 42 44 43 41 44 47 43 49 50 58 45 47 51 55 74 67 100 94 88 83 79
48 50 48 44 44 32 27 23 22 23 30 30 37 36 38 45 46 40 43 57 59 63 52 58 55 57 58 64 73 77 80 80
50 55 56 53 49 41 28 23 17 16 19 27 33 38 41 42 42 47 51 54 46 51 56 81 65 55 52 56 62 62 66 72
50 55 56 53 52 50 41 31 24 13 6 10 16 23 30 36 40 45 46 51 49 52 53 58 72 76 70 67 67 59 62 68
47 52 55 52 48 48 46 44 35 26 19 13 3 8 15 22 30 33 43 45 52 55 58 65 61 64 65 82 69 72 70 67
49 51 50 49 46 45 42 39 37 35 30 24 14 2 11 21 26 28 31 33 34 44 52 54 57 63 60 57 63 59 60 64
46 47 47 44 43 42 40 40 41 35 30 26 19 15 8 3 14 28 32 30 30 35 41 43 47 54 57 63 63 61 59 61
41 42 43 46 45 44 44 42 35 34 30 23 19 16 16 11 5 5 16 27 38 37 38 43 47 47 47 48 51 53 55 56
37 38 39 42 42 39 38 35 36 35 31 27 23 19 16 14 11 8 3 9 20 29 37 42 42 46 48 50 53 55 57 57
31 35 36 34 34 35 33 37 35 30 27 26 25 22 19 15 11 9 7 5 5 13 20 29 37 44 49 50 55 55 56 58
30 34 34 32 30 30 31 31 29 28 28 27 26 23 20 18 15 11 8 8 6 4 6 11 19 29 38 45 51 48 47 49
31 34 36 36 34 30 30 27 26 26 25 25 24 22 20 17 15 14 12 10 9 10 7 5 6 9 12 19 22 26 31 33
30 35 40 39 37 35 33 30 25 22 22 22 22 23 20 18 16 14 14 12 11 11 12 10 6 8 15 20 22 22 22 23
30 36 40 40 37 35 32 29 25 23 21 19 20 19 20 21 18 15 13 14 14 11 11 14 16 15 15 16 13 11 12 15
24 30 32 32 29 27 27 25 24 23 21 21 19 19 18 18 16 18 16 13 13 15 13 12 16 20 24 23 21 15 14 18
18 24 27 27 26 23 23 25 28 27 24 22 21 20 20 19 18 15 14 14 14 12 13 13 13 16 21 27 30 22 23 21
18 24 28 26 27 27 24 24 25 28 32 28 23 21 20 21 21 20 18 14 12 13 13 11 11 11 11 18 26 28 29 24
21 26 32 31 29 32 29 27 27 27 28 30 29 28 23 22 23 24 23 18 15 13 11 9 6 6 9 12 26 39 36 29
Wind_Direction_500mb
3 13 43 93 119 155 163 177 199 205 209 208 209 216 228 237 235 232 234 238 236 230 234 230 244 235 219 226 222 224 229 235
9 44 63 84 98 117 139 140 154 174 187 196 204 213 223 235 240 241 243 250 243 240 239 242 237 237 241 230 227 230 227 232
16 38 70 74 81 95 102 136 136 143 173 189 199 210 212 222 234 240 241 245 247 241 241 241 244 244 236 235 234 228 229 234
28 38 64 69 68 82 82 93 125 152 173 181 192 203 213 223 225 231 237 240 239 241 240 240 240 241 244 245 245 242 239 237
28 46 57 62 68 73 75 77 95 122 152 186 201 210 217 219 223 223 236 238 241 240 240 239 241 241 241 245 244 241 244 243
28 46 55 61 68 74 73 70 72 82 122 166 193 209 218 227 224 227 228 236 238 240 237 239 236 248 245 248 250 245 243 245
38 47 53 56 59 67 74 73 72 70 76 70 77 237 225 224 221 224 233 235 227 236 233 230 242 242 235 244 247 243 240 243
36 44 49 52 56 60 65 69 73 72 69 66 67 182 229 231 231 228 225 222 222 225 234 234 232 240 239 237 244 245 249 243
36 40 44 49 52 56 59 61 61 65 63 60 59 60 73 199 233 242 243 240 238 233 233 232 237 237 239 241 244 244 241 245
41 45 45 45 45 46 48 49 51 54 54 53 51 44 47 51 75 215 235 247 251 248 245 240 237 237 239 241 241 243 243 243
49 49 50 49 48 50 52 53 53 48 42 34 33 32 31 31 28 28 340 245 233 237 243 247 244 242 241 241 241 242 244 243
45 43 44 46 47 48 47 49 45 42 37 32 28 22 17 11 4 3 358 342 280 248 239 238 237 239 242 243 245 246 248 249
40 35 31 30 32 36 37 39 35 34 31 27 21 20 15 8 356 341 325 318 315 297 260 252 245 241 236 234 239 240 242 244
33 26 22 23 27 26 24 20 20 19 18 17 17 14 6 5 3 349 332 315 301 296 297 289 254 221 202 208 216 227 235 238
25 22 20 19 21 21 17 10 5 2 1 0 358 0 2 359 351 353 347 330 307 291 280 268 246 214 210 219 233 236 228 222
16 16 14 12 10 7 9 11 6 358 347 342 341 342 344 346 346 339 332 330 322 304 282 264 251 233 227 228 231 224 215 208
4 7 7 5 2 357 353 357 359 357 351 336 325 324 323 327 333 331 325 311 308 298 290 271 256 240 231 228 229 224 222 211
343 347 355 356 352 348 338 337 338 341 341 339 328 311 309 305 310 310 313 312 300 298 286 275 260 247 236 225 221 221 227 219
324 330 338 345 334 341 329 324 320 321 322 322 320 317 295 291 288 291 303 294 297 287 291 278 271 255 231 220 209 195 218 217
309 318 325 330 326 327 324 317 314 311 307 306 306 303 301 282 275 277 278 285 286 275 278 263 196 183 224 221 208 201 212 217
Wind_Speed_850mb
30 17 13 17 20 22 26 34 48 61 63 70 67 56 48 50 56 55 58 63 66 76 63 66 75 103 89 85 80 76 73 71
36 26 18 25 26 32 30 33 37 47 56 62 58 56 56 50 54 56 58 60 58 54 56 64 87 104 72 91 85 83 77 74
40 35 35 32 35 32 28 22 27 28 39 42 44 43 41 44 47 43 49 50 58 45 47 51 55 74 67 100 94 88 83 79
48 50 48 44 44 32 27 23 22 23 30 30 37 36 38 45 46 40 43 57 59 63 52 58 55 57 58 64 73 77 80 80
50 55 56 53 49 41 28 23 17 16 19 27 33 38 41 42 42 47 51 54 46 51 56 81 65 55 52 56 62 62 66 72
50 55 56 53 52 50 41 31 24 13 6 10 16 23 30 36 40 45 46 51 49 52 53 58 72 76 70 67 67 59 62 68
47 52 55 52 48 48 46 44 35 26 19 13 3 8 15 22 30 33 43 45 52 55 58 65 61 64 65 82 69 72 70 67
49 51 50 49 46 45 42 39 37 35 30 24 14 2 11 21 26 28 31 33 34 44 52 54 57 63 60 57 63 59 60 64
46 47 47 44 43 42 40 40 41 35 30 26 19 15 8 3 14 28 32 30 30 35 41 43 47 54 57 63 63 61 59 61
41 42 43 46 45 44 44 42 35 34 30 23 19 16 16 11 5 5 16 27 38 37 38 43 47 47 47 48 51 53 55 56
37 38 39 42 42 39 38 35 36 35 31 27 23 19 16 14 11 8 3 9 20 29 37 42 42 46 48 50 53 55 57 57
31 35 36 34 34 35 33 37 35 30 27 26 25 22 19 15 11 9 7 5 5 13 20 29 37 44 49 50 55 55 56 58
30 34 34 32 30 30 31 31 29 28 28 27 26 23 20 18 15 11 8 8 6 4 6 11 19 29 38 45 51 48 47 49
31 34 36 36 34 30 30 27 26 26 25 25 24 22 20 17 15 14 12 10 9 10 7 5 6 9 12 19 22 26 31 33
30 35 40 39 37 35 33 30 25 22 22 22 22 23 20 18 16 14 14 12 11 11 12 10 6 8 15 20 22 22 22 23
30 36 40 40 37 35 32 29 25 23 21 19 20 19 20 21 18 15 13 14 14 11 11 14 16 15 15 16 13 11 12 15
24 30 32 32 29 27 27 25 24 23 21 21 19 19 18 18 16 18 16 13 13 15 13 12 16 20 24 23 21 15 14 18
18 24 27 27 26 23 23 25 28 27 24 22 21 20 20 19 18 15 14 14 14 12 13 13 13 16 21 27 30 22 23 21
18 24 28 26 27 27 24 24 25 28 32 28 23 21 20 21 21 20 18 14 12 13 13 11 11 11 11 18 26 28 29 24
21 26 32 31 29 32 29 27 27 27 28 30 29 28 23 22 23 24 23 18 15 13 11 9 6 6 9 12 26 39 36 29
Wind_Direction_850mb
3 13 43 93 119 155 163 177 199 205 209 208 209 216 228 237 235 232 234 238 236 230 234 230 244 235 219 226 222 224 229 235
9 44 63 84 98 117 139 140 154 174 187 196 204 213 223 235 240 241 243 250 243 240 239 242 237 237 241 230 227 230 227 232
16 38 70 74 81 95 102 136 136 143 173 189 199 210 212 222 234 240 241 245 247 241 241 241 244 244 236 235 234 228 229 234
28 38 64 69 68 82 82 93 125 152 173 181 192 203 213 223 225 231 237 240 239 241 240 240 240 241 244 245 245 242 239 237
28 46 57 62 68 73 75 77 95 122 152 186 201 210 217 219 223 223 236 238 241 240 240 239 241 241 241 245 244 241 244 243
28 46 55 61 68 74 73 70 72 82 122 166 193 209 218 227 224 227 228 236 238 240 237 239 236 248 245 248 250 245 243 245
38 47 53 56 59 67 74 73 72 70 76 70 77 237 225 224 221 224 233 235 227 236 233 230 242 242 235 244 247 243 240 243
36 44 49 52 56 60 65 69 73 72 69 66 67 182 229 231 231 228 225 222 222 225 234 234 232 240 239 237 244 245 249 243
36 40 44 49 52 56 59 61 61 65 63 60 59 60 73 199 233 242 243 240 238 233 233 232 237 237 239 241 244 244 241 245
41 45 45 45 45 46 48 49 51 54 54 53 51 44 47 51 75 215 235 247 251 248 245 240 237 237 239 241 241 243 243 243
49 49 50 49 48 50 52 53 53 48 42 34 33 32 31 31 28 28 340 245 233 237 243 247 244 242 241 241 241 242 244 243
45 43 44 46 47 48 47 49 45 42 37 32 28 22 17 11 4 3 358 342 280 248 239 238 237 239 242 243 245 246 248 249
40 35 31 30 32 36 37 39 35 34 31 27 21 20 15 8 356 341 325 318 315 297 260 252 245 241 236 234 239 240 242 244
33 26 22 23 27 26 24 20 20 19 18 17 17 14 6 5 3 349 332 315 301 296 297 289 254 221 202 208 216 227 235 238
25 22 20 19 21 21 17 10 5 2 1 0 358 0 2 359 351 353 347 330 307 291 280 268 246 214 210 219 233 236 228 222
16 16 14 12 10 7 9 11 6 358 347 342 341 342 344 346 346 339 332 330 322 304 282 264 251 233 227 228 231 224 215 208
4 7 7 5 2 357 353 357 359 357 351 336 325 324 323 327 333 331 325 311 308 298 290 271 256 240 231 228 229 224 222 211
343 347 355 356 352 348 338 337 338 341 341 339 328 311 309 305 310 310 313 312 300 298 286 275 260 247 236 225 221 221 227 219
324 330 338 345 334 341 329 324 320 321 322 322 320 317 295 291 288 291 303 294 297 287 291 278 271 255 231 220 209 195 218 217
309 318 325 330 326 327 324 317 314 311 307 306 306 303 301 282 275 277 278 285 286 275 278 263 196 183 224 221 208 201 212 217